Regional Weather Roundup
Issued by NWS Charleston, WV

Home | Current Version | Previous Version | Graphics & Text | Print | Product List | Glossary On
Versions: 1 2 3 4 5 6 7 8 9 10 11 12 13 14 15 16 17 18 19 20 21 22 23 24 25 26 27 28 29 30 31 32 33 34 35 36 37 38 39 40 41 42 43 44 45 46 47 48 49 50
000
ASUS41 KRLX 121710
RWRRLX
West Virginia Regional Weather Roundup
National Weather Service Charleston WV
100 PM EDT SAT JUL 12 2014

Note: "fair" indicates few or no clouds below 12,000 feet with no
significant weather and/or obstructions to visibility.

WVZ003-121800-
Northern Panhandle of West Virginia

CITY           SKY/WX    TMP DP  RH WIND       PRES   REMARKS
WHEELING       MOSUNNY   83  60  45 SW3       30.19F
$$

WVZ009-121800-
Northwest West Virginia

CITY           SKY/WX    TMP DP  RH WIND       PRES   REMARKS
PARKERSBURG    PTSUNNY   85  62  46 S7        30.20F
$$

WVZ006-121800-
Western West Virginia

CITY           SKY/WX    TMP DP  RH WIND       PRES   REMARKS
HUNTINGTON     MOSUNNY   86  60  41 VRB7      30.18F
$$

WVZ015-121800-
West Central West Virginia

CITY           SKY/WX    TMP DP  RH WIND       PRES   REMARKS
CHARLESTON     PTSUNNY   89  60  37 VRB6      30.19S
$$

WVZ031-121800-
North Central West Virginia

CITY           SKY/WX    TMP DP  RH WIND       PRES   REMARKS
CLARKSBURG     MOSUNNY   85  59  41 SW9       30.21F
MORGANTOWN     MOSUNNY   86  56  35 CALM      30.22F
$$

WVZ035-042-045-121800-
South Central West Virginia

CITY           SKY/WX    TMP DP  RH WIND       PRES   REMARKS
BECKLEY        PTSUNNY   82  60  47 W10       30.28F
BLUEFIELD      CLOUDY    80  62  54 VRB3      30.31S
LEWISBURG      MOSUNNY   83  60  46 W5        30.28F
$$

WVZ047-121800-
Northern Mountains of West Virginia

CITY           SKY/WX    TMP DP  RH WIND       PRES   REMARKS
ELKINS         PTSUNNY   81  59  47 W9        30.26S
$$

WVZ052-121800-
Eastern Panhandle of West Virginia

CITY           SKY/WX    TMP DP  RH WIND       PRES   REMARKS
MARTINSBURG    MOSUNNY   86  64  47 S10       30.18F
PETERSBURG     SUNNY     86  55  33 W7        30.19S
$$


USA.gov is the U.S. government's official web portal to all federal, state and local government web resources and services.